Vorticity
43 16 41 33 9 3 -10 7 6 5 4 5 6 4 3 8 7 7 7 6 6 7 6 6 6 7 6 6 5 4 3 3 4 4 3 3 4 5 7 6 6 5 4
27 -8 7 6 39 6 6 3 7 5 6 7 6 5 4 7 5 6 7 6 6 6 5 6 6 7 8 7 6 5 4 3 3 4 6 7 8 6 6 5 5 5 4
-0 23 1 8 20 15 10 9 6 8 5 4 5 5 3 5 4 6 8 6 8 7 7 6 7 7 7 6 6 5 5 5 6 6 6 4 4 4 4 5 5 5 6
3 15 -1 1 3 46 1 3 4 6 4 4 6 5 4 6 7 6 9 6 6 5 7 7 6 6 6 6 6 7 7 7 6 4 4 4 5 8 14 9 10 10 7
7 8 10 -6 -3 1 13 7 8 7 6 5 5 6 4 5 8 9 7 5 6 5 5 7 7 6 6 7 6 5 5 5 6 5 4 7 5 5 3 5 6 8 7
6 3 35 -16 14 3 -6 5 16 7 5 7 6 5 4 4 6 11 8 5 5 4 5 7 6 7 7 5 4 5 6 6 7 5 7 5 8 5 1 1 7 8 6
-5 3 3 8 -3 9 19 9 9 11 5 7 6 4 5 3 7 7 11 5 5 6 10 6 6 5 5 5 6 5 5 5 5 9 13 3 6 9 6 6 4 7 10
10 14 20 -21 20 -8 -14 19 1 12 6 3 5 4 3 7 2 6 6 8 7 8 3 5 5 6 5 6 6 5 6 6 5 3 3 4 4 4 3 5 7 6 8
9 -4 20 8 -14 -16 30 24 -0 18 9 7 5 5 4 -0 6 10 5 9 -0 2 16 7 3 8 8 6 6 4 2 2 4 5 4 5 5 2 7 6 6 3 7
18 17 2 -5 -6 31 1 -19 27 7 6 7 5 7 3 6 6 1 -3 6 -10 15 11 5 10 8 8 4 7 5 4 7 3 1 6 -0 4 6 7 6 3 3 4
17 13 28 1 -11 9 5 12 13 8 3 3 7 -3 -3 6 10 14 8 -16 5 15 4 10 -1 7 5 6 -1 0 3 -1 8 -3 1 0 4 10 5 5 6 3 4
17 6 9 9 18 2 21 48 0 -10 39 -0 -0 25 7 13 6 -16 7 -9 11 3 -3 3 12 -0 2 11 6 7 3 3 4 7 2 4 6 5 5 9 10 5 1
13 23 24 3 5 50 57 49 -2 22 10 17 19 9 3 -4 -1 20 -2 0 37 3 6 7 -3 2 5 13 15 -1 8 7 3 3 5 4 3 5 4 4 7 9 1
6 16 13 23 11 4 10 5 23 14 28 7 -4 5 16 16 6 -2 -11 -4 21 6 3 9 -8 -0 -1 -0 5 6 5 2 4 6 9 3 7 7 2 -0 2 4 -8
3 -2 -2 6 12 8 14 30 7 -13 44 -7 3 12 -1 -8 -2 -1 5 -7 13 8 -1 6 2 15 3 5 8 2 5 5 5 3 9 4 9 12 7 12 9 -9 -9
11 11 6 6 8 5 13 -4 -6 9 -0 14 -4 5 2 4 8 14 3 -2 12 10 0 9 1 -2 14 0 -6 10 -4 4 4 8 5 4 -3 11 21 12 31 3 19
18 7 11 10 8 9 13 23 16 28 1 11 10 6 23 10 6 3 3 18 19 1 3 10 -2 6 6 17 12 9 -2 2 -7 10 2 5 4 5 28 13 9 31 19
13 18 11 12 9 9 8 11 10 17 22 18 13 15 11 5 4 0 3 2 -4 1 -10 -8 13 20 -1 14 6 8 -3 3 5 3 2 8 17 16 -9 27 15 15 9
6 7 8 13 13 14 10 9 15 15 10 10 13 10 8 10 12 10 3 5 6 2 -2 3 7 5 5 6 6 7 9 6 6 2 7 -3 14 13 8 1 20 22 12
4 3 4 5 6 5 7 10 10 9 7 16 15 11 13 14 12 13 12 8 10 2 8 -8 12 4 9 9 13 8 4 7 5 4 8 4 12 18 -1 -7 -11 5 1
3 3 3 2 4 5 5 4 5 5 8 8 8 11 10 7 10 11 8 11 9 9 6 8 19 10 6 4 7 4 6 6 5 11 14 13 3 17 1 26 -6 13 2
5 8 6 5 4 3 4 6 5 4 5 4 4 7 8 7 6 9 10 8 5 8 8 8 6 7 3 11 16 11 9 7 4 18 6 3 -6 -4 21 -2 31 -6 12
18 15 12 7 5 6 7 6 6 6 7 7 5 5 5 7 6 6 8 8 8 6 5 3 4 7 8 5 2 4 4 5 4 4 8 6 -9 10 13 -2 15 6 13
6 4 6 15 19 25 25 16 9 9 10 7 8 8 7 6 7 6 3 5 4 5 6 7 6 7 2 3 6 6 1 6 4 -15 -9 -0 26 8 4 6 -7 17 6
-7 17 11 1 5 -6 6 16 16 18 18 14 13 8 9 10 8 7 7 7 6 6 3 5 4 4 5 4 4 7 1 5 12 -8 15 5 12 -6 3 17 12 26 10
9 1 -14 -3 1 -1 -9 -10 4 -0 14 17 19 15 18 17 12 12 9 11 10 8 8 9 8 8 7 11 14 17 15 7 1 11 34 19 1 25 27 29 13 10 16
Height
3072 3075 3080 3088 3096 3102 3108 3110 3116 3120 3124 3128 3131 3134 3138 3140 3143 3146 3149 3151 3153 3155 3157 3159 3160 3164 3165 3167 3169 3170 3172 3173 3175 3176 3177 3177 3178 3178 3179 3178 3179 3178 3178
3077 3077 3083 3089 3095 3100 3106 3109 3114 3118 3122 3126 3131 3133 3136 3139 3141 3144 3148 3149 3152 3155 3156 3157 3160 3162 3165 3166 3168 3170 3171 3173 3174 3175 3175 3176 3176 3176 3177 3177 3177 3176 3176
3079 3081 3084 3088 3092 3097 3104 3109 3110 3115 3118 3122 3127 3131 3134 3137 3139 3142 3146 3148 3151 3152 3155 3156 3159 3161 3163 3165 3167 3168 3170 3172 3172 3173 3174 3174 3174 3174 3174 3174 3173 3173 3172
3080 3083 3086 3089 3094 3096 3102 3106 3107 3112 3116 3120 3125 3129 3133 3136 3138 3140 3144 3146 3149 3151 3154 3156 3157 3159 3161 3163 3165 3166 3167 3168 3170 3171 3171 3171 3172 3171 3171 3171 3170 3170 3169
3079 3082 3086 3089 3093 3096 3100 3104 3106 3109 3114 3118 3122 3127 3130 3134 3136 3138 3141 3144 3146 3149 3152 3154 3156 3157 3159 3161 3162 3164 3165 3167 3168 3168 3168 3168 3169 3169 3169 3168 3167 3166 3166
3076 3078 3080 3084 3090 3093 3096 3100 3104 3107 3112 3117 3120 3125 3128 3132 3134 3135 3139 3141 3144 3146 3148 3151 3153 3155 3157 3159 3160 3161 3162 3164 3164 3165 3165 3165 3166 3166 3165 3164 3164 3163 3162
3071 3072 3078 3081 3081 3087 3093 3097 3100 3103 3107 3112 3115 3120 3124 3127 3130 3132 3135 3139 3143 3145 3147 3148 3151 3152 3155 3156 3158 3158 3160 3161 3162 3162 3162 3162 3162 3161 3161 3160 3159 3159 3158
3064 3069 3070 3071 3081 3085 3087 3091 3094 3096 3103 3108 3112 3117 3120 3123 3124 3128 3132 3137 3139 3142 3145 3147 3150 3151 3152 3153 3155 3156 3157 3158 3158 3158 3158 3158 3158 3156 3156 3155 3155 3154 3153
3058 3062 3064 3070 3075 3079 3080 3085 3089 3091 3098 3103 3108 3113 3115 3118 3124 3127 3128 3133 3135 3138 3140 3143 3146 3147 3148 3150 3151 3152 3153 3153 3154 3154 3154 3154 3153 3152 3151 3150 3150 3149 3148
3052 3054 3061 3065 3066 3072 3076 3080 3085 3088 3095 3100 3103 3108 3112 3118 3122 3125 3127 3130 3133 3135 3137 3139 3142 3143 3144 3145 3147 3148 3149 3149 3149 3149 3149 3149 3149 3148 3147 3145 3144 3144 3144
3047 3051 3055 3059 3061 3067 3071 3074 3078 3082 3087 3096 3099 3101 3103 3113 3118 3121 3125 3127 3127 3130 3132 3135 3138 3140 3140 3141 3142 3143 3144 3144 3144 3144 3144 3143 3142 3142 3141 3141 3139 3138 3137
3044 3047 3051 3053 3057 3059 3063 3066 3071 3078 3082 3088 3090 3097 3103 3110 3113 3116 3119 3120 3122 3125 3128 3130 3132 3134 3134 3135 3136 3138 3139 3138 3138 3137 3137 3137 3137 3135 3134 3133 3133 3132 3131
3043 3045 3047 3050 3052 3057 3060 3065 3071 3073 3079 3084 3088 3095 3101 3105 3110 3111 3113 3114 3116 3119 3122 3123 3126 3128 3129 3128 3131 3132 3132 3131 3131 3130 3130 3130 3129 3128 3126 3125 3124 3124 3123
3043 3043 3045 3048 3052 3057 3061 3064 3067 3073 3077 3081 3087 3091 3094 3099 3103 3106 3109 3109 3110 3112 3115 3116 3119 3120 3120 3121 3122 3123 3122 3124 3124 3124 3124 3123 3121 3119 3117 3115 3115 3114 3114
3041 3043 3046 3048 3052 3054 3058 3061 3065 3069 3073 3076 3082 3086 3090 3094 3098 3100 3102 3103 3104 3105 3106 3109 3110 3112 3113 3113 3114 3115 3115 3116 3116 3115 3114 3113 3112 3110 3107 3105 3104 3102 3103
3040 3043 3045 3047 3049 3051 3055 3058 3061 3065 3069 3073 3076 3079 3083 3088 3091 3094 3095 3097 3098 3099 3098 3102 3103 3105 3105 3105 3107 3105 3106 3107 3107 3106 3104 3103 3101 3098 3095 3093 3092 3091 3090
3040 3042 3044 3046 3048 3050 3053 3055 3058 3062 3064 3069 3071 3074 3077 3082 3084 3087 3089 3090 3090 3091 3090 3093 3094 3097 3095 3096 3098 3097 3096 3095 3096 3095 3094 3093 3091 3088 3084 3082 3081 3079 3079
3040 3041 3042 3044 3046 3048 3050 3051 3054 3057 3059 3063 3066 3068 3071 3074 3077 3080 3081 3082 3084 3083 3083 3082 3084 3085 3086 3087 3088 3087 3088 3087 3085 3085 3084 3081 3078 3077 3074 3072 3070 3069 3067
3041 3041 3042 3042 3044 3046 3047 3049 3050 3051 3053 3056 3059 3061 3064 3067 3069 3071 3073 3074 3075 3075 3074 3072 3073 3074 3075 3076 3076 3076 3076 3074 3074 3074 3073 3071 3067 3064 3063 3061 3060 3060 3058
3039 3040 3040 3041 3042 3044 3044 3045 3045 3046 3047 3049 3051 3053 3055 3057 3059 3061 3062 3064 3065 3065 3065 3062 3062 3064 3063 3064 3062 3062 3060 3063 3061 3060 3059 3058 3056 3053 3051 3050 3049 3048 3046
3033 3035 3036 3037 3039 3039 3040 3041 3041 3042 3042 3042 3043 3044 3046 3048 3050 3052 3052 3053 3053 3053 3053 3051 3049 3050 3051 3049 3049 3051 3045 3048 3045 3046 3045 3044 3043 3042 3039 3038 3036 3035 3033
3028 3029 3030 3031 3032 3033 3034 3035 3036 3036 3036 3036 3037 3038 3039 3040 3041 3042 3042 3043 3043 3042 3042 3041 3038 3036 3036 3036 3038 3038 3038 3036 3030 3035 3033 3030 3030 3028 3027 3025 3022 3020 3017
3022 3022 3023 3024 3025 3025 3027 3027 3028 3026 3026 3027 3029 3030 3029 3030 3031 3031 3032 3032 3032 3031 3031 3031 3025 3024 3023 3026 3026 3023 3023 3021 3019 3016 3016 3013 3013 3011 3011 3010 3008 3004 3001
3016 3016 3016 3016 3017 3017 3018 3018 3017 3015 3015 3016 3017 3018 3017 3019 3020 3020 3020 3017 3017 3018 3017 3017 3013 3011 3010 3010 3011 3009 3008 3006 3004 3000 2998 2997 2994 2995 2994 2992 2989 2987 2985
3008 3009 3009 3008 3007 3007 3008 3007 3007 3005 3004 3004 3006 3005 3004 3004 3007 3007 3006 3004 3003 3002 3002 3000 2998 2995 2995 2995 2996 2996 2994 2993 2988 2983 2980 2979 2976 2976 2975 2972 2970 2968 2967
2997 2998 2999 2998 2996 2998 2997 2997 2997 2995 2994 2993 2995 2992 2991 2990 2992 2993 2991 2990 2986 2986 2986 2983 2983 2981 2980 2978 2978 2977 2976 2974 2972 2968 2960 2961 2958 2958 2955 2954 2951 2951 2951